Wind_Speed
2 2 1 2 4 9 8 4 6 4 9 5 11 14 13 11 12 11 9 7 6 6 6 6 8 7 5 5 7 10 12 11 9 9 11 12 15 19 21 19 13 13 10 9
2 2 3 3 4 7 6 4 10 4 12 8 0 9 12 14 13 11 9 8 8 8 6 7 7 5 3 5 7 12 11 9 11 12 13 14 16 18 16 13 10 10 12 5
3 2 3 5 9 12 6 6 7 10 8 7 6 11 15 15 13 11 9 9 8 7 8 8 6 2 3 6 8 9 11 12 14 14 14 14 14 14 14 12 10 9 9 5
2 1 1 4 2 1 10 6 12 2 4 8 4 5 10 12 13 10 9 10 8 10 10 9 4 1 2 5 8 10 11 13 14 14 14 12 12 14 14 13 11 12 9 7
3 3 5 5 3 5 6 5 12 11 5 5 6 5 4 10 9 10 9 10 10 10 10 7 3 1 4 7 8 10 12 14 15 13 11 10 12 15 15 13 13 11 7 5
3 2 5 5 2 3 3 4 2 7 9 10 10 5 6 15 10 9 11 12 13 12 8 5 1 3 6 6 9 10 12 14 14 10 9 11 15 14 14 12 9 4 6 4
2 3 7 6 2 2 3 4 4 8 8 13 7 3 3 12 11 13 13 14 12 9 5 1 2 5 5 7 9 10 12 13 11 10 13 15 14 14 15 8 5 6 5 5
3 1 6 5 3 5 3 1 2 6 8 13 6 7 9 11 11 16 15 10 7 4 2 1 4 6 6 9 11 11 12 11 10 13 14 14 13 11 9 6 6 4 4 7
8 5 3 5 3 1 1 2 2 3 3 7 8 7 11 11 10 13 12 10 5 1 1 3 5 6 8 11 11 12 12 12 12 14 12 10 9 8 6 4 4 4 5 7
1 2 7 10 5 5 5 4 2 3 5 11 9 12 11 11 9 12 9 6 3 1 2 5 7 8 9 11 11 11 12 12 13 13 13 8 6 5 5 4 5 7 7 9
4 7 4 7 6 3 3 2 2 4 5 9 13 11 10 6 10 9 7 4 2 2 3 6 9 10 11 11 11 13 13 13 14 13 8 7 5 5 6 7 8 10 10 10
5 2 2 3 4 2 3 2 6 10 11 13 14 9 12 8 8 8 7 3 1 3 5 8 11 11 11 9 11 13 13 14 12 13 9 9 9 10 10 11 12 12 13 12
3 2 1 2 3 2 5 9 12 14 14 12 14 15 9 6 7 6 4 2 3 5 8 10 10 11 12 12 14 14 15 14 13 11 11 12 11 11 13 11 12 12 13 14
4 2 1 5 4 8 14 17 20 21 19 19 13 8 7 5 5 4 4 5 5 6 8 9 10 13 14 14 14 16 16 17 16 13 13 12 14 14 11 13 15 14 12 13
7 6 6 11 15 14 18 19 14 12 10 7 7 7 5 3 4 6 7 7 7 8 10 11 12 16 18 16 14 15 14 16 17 16 15 14 11 12 13 14 15 15 14 13
11 13 14 16 15 14 12 12 10 6 7 5 3 2 4 5 6 8 9 10 9 10 13 16 21 24 21 17 15 15 17 18 18 17 15 15 16 16 15 15 16 15 15 14
13 10 13 12 10 10 8 5 3 4 4 4 4 3 4 7 9 12 13 13 15 17 19 21 23 20 17 17 16 16 20 18 20 17 16 17 16 15 16 16 17 16 16 15
16 13 13 11 8 6 3 3 3 1 1 3 3 5 8 10 13 15 15 14 16 20 21 19 18 18 19 18 18 18 19 19 17 18 18 18 18 18 17 17 18 17 18 17
16 13 10 7 6 5 4 3 2 2 3 5 7 10 12 15 17 18 18 17 19 21 23 15 17 17 18 19 18 18 17 16 16 17 18 20 20 20 20 21 21 20 20 19
10 9 9 7 6 6 5 5 4 6 8 9 11 15 19 22 22 22 20 21 22 23 19 17 17 17 17 18 18 19 19 19 19 19 19 19 19 21 23 23 25 22 22 20
7 7 8 8 7 7 9 9 11 13 16 17 18 21 24 27 27 26 19 15 27 20 14 15 15 17 13 15 17 20 20 21 21 21 20 18 19 19 20 22 23 23 22 22
7 8 8 8 8 10 13 14 15 17 20 21 22 24 25 25 24 26 29 24 30 23 15 14 15 15 16 18 18 20 21 21 21 21 20 19 18 19 19 19 19 20 21 22
9 9 11 13 12 10 13 19 22 22 22 22 22 22 21 23 23 19 19 25 23 18 14 13 14 14 17 18 17 15 16 17 19 19 19 19 20 20 20 20 20 19 19 20
11 12 11 10 13 16 18 20 20 18 19 20 20 21 21 24 30 22 25 26 26 25 15 11 12 12 15 15 13 12 12 12 13 15 17 18 20 21 21 20 22 23 21 21
11 10 13 14 15 15 16 18 18 19 22 22 22 22 23 22 24 33 31 28 28 26 16 11 9 9 9 8 9 9 9 10 12 13 13 14 15 16 17 18 20 23 23 19
13 13 11 11 11 13 15 17 17 18 21 24 23 24 27 29 28 31 29 28 30 15 9 3 3 4 4 6 7 9 10 11 13 14 14 14 15 16 19 20 19 15 13 10
11 12 10 10 12 14 15 17 18 20 21 22 26 28 29 29 28 30 29 22 7 1 2 3 3 4 5 6 8 9 10 11 13 14 14 15 15 16 17 17 17 17 16 14
Wind_Direction
89 25 283 235 183 185 205 174 189 221 218 234 216 197 183 165 156 154 158 156 140 133 127 119 124 103 83 35 4 344 328 320 308 306 310 319 329 330 328 326 324 318 312 317
179 355 4 275 236 210 230 219 250 232 261 221 236 148 167 174 170 171 170 159 152 145 139 122 112 108 30 344 325 327 324 323 308 300 310 318 326 329 328 326 324 350 337 343
242 358 347 315 222 206 196 205 207 224 242 162 175 184 181 176 180 181 178 170 161 150 146 147 137 95 347 332 331 340 327 314 309 306 307 314 319 326 324 317 310 314 304 289
166 9 239 251 178 191 226 233 210 213 182 189 189 181 175 181 180 181 175 169 166 157 149 146 129 349 322 340 334 329 327 327 323 308 302 309 317 326 321 315 300 296 284 279
154 209 305 267 210 182 182 280 206 212 154 144 125 120 204 193 189 183 175 162 155 153 143 138 155 226 329 333 331 329 330 329 323 309 300 305 317 323 320 316 302 284 262 209
130 181 234 249 266 200 166 284 194 161 165 158 151 183 228 186 172 146 144 151 147 139 142 148 168 317 324 324 327 328 329 325 323 315 304 312 319 322 319 311 305 250 191 218
144 232 283 250 246 173 109 249 166 176 168 164 195 195 115 138 135 147 145 139 136 136 132 141 292 302 306 318 318 315 320 322 324 321 315 314 315 318 315 285 256 238 231 251
108 187 270 179 114 179 221 282 224 196 186 190 146 127 122 121 128 133 129 125 128 122 117 271 301 286 292 307 315 312 316 318 327 330 323 315 313 318 316 279 267 223 268 288
197 218 239 220 229 203 182 231 225 218 194 173 140 138 138 135 127 132 131 138 146 131 278 292 309 292 285 306 315 315 316 316 324 324 321 312 312 305 304 285 265 271 284 293
134 225 236 244 260 227 198 228 245 236 181 172 149 144 130 130 124 132 148 143 158 205 279 306 320 314 293 306 316 324 322 315 315 316 316 304 293 285 291 287 278 277 283 288
263 282 273 261 239 255 220 198 124 108 127 131 127 123 117 113 138 154 145 164 196 254 298 309 316 315 311 311 318 315 313 308 307 312 296 289 266 268 281 283 278 276 280 283
228 266 212 287 349 342 159 140 122 112 94 95 110 112 114 137 157 161 174 186 240 305 317 318 319 317 320 318 310 308 303 301 295 301 282 276 272 284 294 294 284 283 284 279
295 9 307 20 23 35 101 108 106 105 101 101 95 110 145 141 174 168 176 220 282 307 316 315 314 314 315 302 304 300 297 303 299 289 287 274 272 275 293 302 287 282 280 278
37 325 58 34 61 71 100 101 95 91 86 90 116 146 148 154 166 195 229 259 277 294 302 305 302 305 306 301 296 302 293 297 294 282 283 283 283 274 277 295 302 295 287 279
31 54 89 97 88 87 89 90 80 75 90 128 158 173 175 178 216 240 259 255 268 281 292 299 299 308 320 306 289 292 292 299 290 285 277 285 276 275 275 285 284 289 290 284
79 85 91 89 90 84 82 78 94 154 188 186 183 199 233 239 257 268 259 252 247 269 305 309 306 308 312 304 286 281 289 295 293 277 273 273 276 273 273 277 279 281 280 276
105 94 99 93 88 95 129 162 185 172 174 199 241 259 248 268 272 269 266 265 266 276 289 298 305 314 309 299 289 281 292 285 285 269 260 267 268 275 270 271 273 272 272 271
98 106 108 123 147 154 147 119 117 159 286 306 279 267 269 267 266 281 281 282 281 282 286 297 308 308 306 306 298 289 286 284 281 275 270 263 264 261 265 265 265 266 269 271
118 128 136 136 138 126 113 83 42 355 315 297 282 280 283 281 281 284 288 282 280 283 290 307 310 307 310 314 311 308 303 293 289 287 281 267 261 262 262 260 261 262 263 264
100 101 103 93 76 62 59 40 8 334 326 312 300 294 295 296 296 292 287 274 273 279 291 302 305 305 315 319 315 308 301 294 289 288 283 273 267 263 259 259 260 257 259 258
73 77 70 61 46 39 27 12 356 343 333 327 318 306 302 303 300 293 283 274 288 291 286 291 299 308 309 311 312 307 301 292 288 285 283 280 277 273 270 266 263 259 258 257
66 58 43 34 27 19 17 23 16 3 353 346 342 336 329 315 311 304 295 268 288 284 277 282 298 305 302 305 302 299 296 295 292 289 286 285 285 285 282 278 273 271 268 263
69 61 52 40 33 25 23 14 2 355 350 345 337 335 328 316 310 303 298 303 290 267 257 280 292 289 289 301 307 304 303 303 304 312 312 303 292 291 291 287 283 281 277 272
70 58 46 37 37 30 16 360 354 349 344 342 338 336 332 328 319 319 313 313 312 291 268 268 278 284 299 313 317 321 324 324 324 324 322 315 309 316 297 290 288 284 281 279
61 53 42 37 30 17 2 354 347 345 338 333 326 324 322 319 313 309 303 301 301 303 255 256 269 299 322 335 345 351 355 353 356 355 352 348 344 344 334 330 310 291 287 286
51 42 39 40 27 6 355 351 344 337 332 328 328 327 325 323 319 327 322 307 309 268 226 248 304 338 2 18 22 21 20 14 12 14 10 4 3 6 7 7 4 5 359 333
54 42 29 17 10 0 352 346 341 334 332 325 319 322 322 322 322 323 328 323 293 262 50 69 51 50 45 38 29 23 17 12 10 8 6 2 1 358 0 0 360 4 11 17
Height
819 820 815 811 813 818 816 816 816 810 814 805 806 812 819 825 831 836 839 842 844 846 849 851 853 854 855 855 854 854 853 852 851 850 848 846 843 840 836 833 830 828 825 823
819 824 823 816 813 815 817 816 812 815 809 803 808 812 821 825 830 833 836 839 843 846 849 849 850 853 854 854 853 852 851 849 848 847 845 842 839 836 833 830 827 825 824 822
822 832 826 823 805 803 805 805 799 807 792 806 811 812 814 820 825 829 833 837 841 843 845 847 849 850 851 851 851 850 849 847 844 842 840 838 836 833 830 828 825 823 822 821
827 842 825 793 797 798 798 797 797 798 799 800 802 808 812 817 820 827 831 834 837 840 842 845 846 848 850 849 848 847 846 843 840 837 835 834 832 830 827 824 822 821 820 819
824 825 811 789 798 798 798 787 787 790 800 806 810 811 813 817 819 822 826 831 836 839 842 843 845 847 847 846 845 844 842 839 836 834 832 830 828 825 823 820 818 817 816 817
845 822 819 794 793 792 791 796 786 789 799 805 808 808 798 809 816 822 827 831 835 837 840 842 843 844 844 843 842 840 839 836 833 830 828 826 824 821 819 816 814 813 814 815
854 822 811 794 792 793 801 793 789 788 794 803 800 798 803 808 817 823 827 831 835 837 839 840 841 841 841 841 840 838 835 833 830 827 825 822 820 818 816 814 813 813 812 813
852 832 811 793 793 795 786 787 787 789 790 793 799 804 808 812 818 822 828 833 836 837 838 839 839 839 839 838 836 834 832 829 826 824 821 820 817 814 812 812 811 811 811 810
806 796 789 790 786 787 789 788 788 790 792 795 800 804 809 814 819 824 827 831 834 836 837 837 837 836 836 835 833 830 827 825 822 821 818 816 815 813 812 811 810 809 809 808
801 784 788 787 785 786 787 788 787 789 790 794 799 806 811 816 821 825 829 832 834 835 835 835 834 833 832 830 828 826 824 822 820 817 815 813 811 811 810 809 808 808 807 805
796 785 787 783 784 783 785 787 788 790 791 795 800 808 813 818 822 827 829 831 832 832 832 831 830 829 828 826 825 824 822 819 817 814 812 811 809 809 808 806 805 804 803 802
789 782 781 781 786 785 786 788 791 793 798 802 804 810 815 822 825 827 828 830 830 830 829 828 827 826 824 823 822 821 818 816 814 812 810 808 807 806 804 802 801 801 799 798
782 785 786 789 789 788 789 791 794 798 802 806 812 815 820 823 825 826 828 828 828 828 827 826 825 823 821 820 818 816 814 812 810 808 807 805 804 802 800 799 797 796 795 794
789 787 786 790 791 793 794 798 800 804 809 813 817 819 820 822 824 825 825 825 825 825 824 823 822 819 817 815 813 811 810 808 806 804 803 801 800 798 797 795 793 791 790 789
791 790 792 795 797 800 802 805 808 812 816 818 818 818 819 821 822 822 822 823 822 822 820 818 816 814 812 809 807 805 804 802 801 799 798 796 794 793 792 791 789 787 785 784
797 797 798 800 804 807 808 811 814 816 815 816 818 819 819 820 820 820 820 819 819 817 815 814 812 809 807 804 802 799 798 796 795 793 792 791 789 787 786 785 783 781 780 779
798 804 805 807 809 812 813 813 813 814 816 817 817 818 818 818 818 816 815 815 814 812 811 808 806 804 801 799 796 793 791 789 788 786 784 783 782 781 780 779 777 775 774 773
799 805 808 809 811 812 814 815 815 816 816 817 817 817 817 816 814 812 811 811 809 807 805 803 801 798 795 793 790 787 785 783 781 779 777 776 774 773 772 771 770 768 767 766
806 808 810 811 813 814 815 816 816 816 816 816 816 815 814 812 810 807 806 805 803 799 796 796 794 791 789 786 784 782 779 777 774 772 770 768 766 765 764 763 761 760 759 758
810 811 812 814 815 815 816 816 816 816 815 814 813 812 809 807 805 802 800 797 795 792 790 789 787 785 783 780 779 776 774 771 769 766 763 761 759 756 755 753 752 750 749 748
815 815 816 816 817 817 817 817 817 816 815 813 812 809 805 801 800 797 795 791 785 784 783 782 780 778 777 775 773 771 768 765 762 759 756 754 751 749 747 745 743 741 739 738
818 819 819 819 819 819 819 819 817 815 813 811 809 806 802 796 793 789 786 783 777 776 776 775 774 773 772 770 768 765 762 759 755 753 750 747 745 743 740 738 735 733 731 729
821 822 822 822 821 821 820 818 816 814 811 809 807 804 801 796 791 787 779 775 771 769 767 766 768 767 766 764 761 759 756 754 751 748 745 742 739 737 734 732 729 727 724 722
823 824 825 824 822 820 818 818 816 814 811 808 805 803 799 792 783 783 777 771 768 765 762 760 761 761 761 758 756 754 752 749 747 744 741 738 735 731 728 725 722 720 717 715
826 826 825 823 822 823 822 819 816 812 809 807 803 799 795 792 788 776 770 766 762 759 757 754 755 756 756 754 753 751 749 747 744 741 739 736 732 728 724 720 716 714 711 709
827 827 827 827 827 826 825 821 819 815 810 803 799 795 790 785 779 773 766 761 756 752 752 751 752 753 752 751 750 750 748 746 744 741 738 736 732 728 724 720 715 711 708 706
829 830 830 829 828 827 825 822 818 814 810 805 798 793 787 781 776 770 764 758 754 753 752 751 752 752 751 750 750 749 747 746 744 741 738 735 732 729 725 722 718 715 711 708